| time (UTC) | temp F | wind direction | speed MPH | gust MPH | rain 1hr in | rain 24hr in | rain mn in | humidity % | barometer mb |
| 20260503054838 | 70 | 282 | 2.0 | 3.0 | 0.00 | 0.00 | 0.00 | 99 | 1017.6 |
| 20260503054334 | 70 | 125 | 1.0 | 2.0 | 0.00 | 0.00 | 0.00 | 99 | 1017.6 |
| 20260503053832 | 70 | 121 | 2.0 | 3.0 | 0.00 | 0.00 | 0.00 | 99 | 1017.6 |
| 20260503053330 | 70 | 296 | 2.0 | 3.0 | 0.00 | 0.00 | 0.00 | 99 | 1017.6 |
| 20260503052826 | 70 | 316 | 2.0 | 3.0 | 0.00 | 0.00 | 0.00 | 99 | 1017.7 |
| 20260503052323 | 70 | 187 | 1.0 | 5.0 | 0.00 | 0.00 | 0.00 | 99 | 1018.1 |
| 20260503051819 | 70 | 54 | 1.0 | 6.0 | 0.00 | 0.00 | 0.00 | 99 | 1017.8 |
| 20260503051316 | 70 | 326 | 2.0 | 2.0 | 0.00 | 0.00 | 0.00 | 99 | 1018.1 |
| 20260503050812 | 70 | 94 | 1.0 | 3.0 | 0.00 | 0.00 | 0.00 | 99 | 1018.1 |
| 20260503050309 | 70 | 51 | 1.0 | 2.0 | 0.00 | 0.00 | 0.00 | 99 | 1018.3 |
| 20260503045807 | 69 | 101 | 0.0 | 2.0 | 0.00 | 0.00 | 0.00 | 99 | 1018.4 |
| 20260503045305 | 69 | 240 | 1.0 | 3.0 | 0.00 | 0.00 | 0.00 | 99 | 1018.3 |
| 20260503044800 | 69 | 114 | 0.0 | 2.0 | 0.00 | 0.00 | 0.00 | 99 | 1018.3 |
| 20260503044257 | 69 | 106 | 1.0 | 1.0 | 0.00 | 0.00 | 0.00 | 99 | 1018.4 |
| 20260503043755 | 69 | 116 | 0.0 | 1.0 | 0.00 | 0.00 | 0.00 | 99 | 1018.4 |
| 20260503043252 | 69 | 172 | 3.0 | 3.0 | 0.00 | 0.00 | 0.00 | 99 | 1018.2 |
| 20260503042747 | 69 | 147 | 1.0 | 3.0 | 0.00 | 0.00 | 0.00 | 99 | 1018.2 |
| 20260503042244 | 70 | 110 | 0.0 | 2.0 | 0.00 | 0.00 | 0.00 | 99 | 1018.3 |
| 20260503041740 | 70 | 120 | 1.0 | 2.0 | 0.00 | 0.00 | 0.00 | 99 | 1018.2 |
| 20260503041238 | 70 | 127 | 1.0 | 3.0 | 0.00 | 0.00 | 0.00 | 99 | 1018.2 |
| 20260503040736 | 70 | 109 | 0.0 | 1.0 | 0.00 | 0.00 | 0.00 | 99 | 1018.0 |
| 20260503040233 | 70 | 191 | 1.0 | 1.0 | 0.00 | 0.00 | 0.00 | 99 | 1017.8 |
| 20260503035729 | 70 | 144 | 1.0 | 2.0 | 0.00 | 0.06 | 0.06 | 99 | 1017.9 |
| 20260503035227 | 70 | 161 | 1.0 | 3.0 | 0.00 | 0.06 | 0.06 | 99 | 1017.8 |
| 20260503034724 | 70 | 153 | 2.0 | 2.0 | 0.00 | 0.06 | 0.06 | 99 | 1017.6 |
| 20260503034221 | 70 | 320 | 2.0 | 3.0 | 0.00 | 0.06 | 0.06 | 99 | 1017.9 |
| 20260503033719 | 70 | 149 | 2.0 | 3.0 | 0.00 | 0.06 | 0.06 | 99 | 1017.7 |
| 20260503033216 | 70 | 150 | 1.0 | 1.0 | 0.00 | 0.06 | 0.06 | 99 | 1017.2 |
| 20260503032714 | 70 | 138 | 1.0 | 2.0 | 0.00 | 0.06 | 0.06 | 99 | 1017.2 |
| 20260503032213 | 70 | 71 | 1.0 | 1.0 | 0.00 | 0.06 | 0.06 | 99 | 1017.3 |
| 20260503031709 | 70 | 82 | 1.0 | 2.0 | 0.07 | 0.06 | 0.06 | 99 | 1016.8 |
| 20260503031208 | 70 | 34 | 3.0 | 6.0 | 0.07 | 0.06 | 0.06 | 99 | 1017.1 |
| 20260503030703 | 70 | 52 | 2.0 | 2.0 | 0.00 | 0.05 | 0.05 | 99 | 1016.8 |
| 20260503030200 | 70 | 61 | 1.0 | 2.0 | 0.00 | 0.05 | 0.05 | 99 | 1016.9 |
| 20260503025657 | 69 | 181 | 2.0 | 3.0 | 0.00 | 0.05 | 0.05 | 99 | 1016.9 |
| 20260503025154 | 69 | 290 | 3.0 | 6.0 | 0.00 | 0.05 | 0.05 | 99 | 1017.1 |
| 20260503024650 | 70 | 284 | 2.0 | 5.0 | 0.00 | 0.05 | 0.05 | 99 | 1017.0 |
| 20260503024148 | 70 | 219 | 4.0 | 7.0 | 0.00 | 0.05 | 0.05 | 99 | 1017.1 |
| 20260503023645 | 70 | 216 | 4.0 | 6.0 | 0.00 | 0.05 | 0.05 | 99 | 1017.3 |
| 20260503023142 | 70 | 269 | 4.0 | 6.0 | 0.00 | 0.05 | 0.05 | 99 | 1017.2 |
| 20260503022637 | 70 | 348 | 4.0 | 7.0 | 0.00 | 0.05 | 0.05 | 99 | 1017.2 |
| 20260503022132 | 70 | 23 | 4.0 | 7.0 | 0.00 | 0.05 | 0.05 | 99 | 1016.8 |
| 20260503021629 | 70 | 194 | 4.0 | 5.0 | 0.00 | 0.05 | 0.05 | 99 | 1016.7 |
| 20260503021126 | 70 | 304 | 4.0 | 8.0 | 0.00 | 0.05 | 0.05 | 99 | 1016.7 |
| 20260503020623 | 70 | 270 | 3.0 | 5.0 | 0.00 | 0.05 | 0.05 | 99 | 1016.6 |
| 20260503020120 | 70 | 286 | 5.0 | 6.0 | 0.00 | 0.05 | 0.05 | 99 | 1016.3 |
| 20260503015617 | 70 | 288 | 3.0 | 5.0 | 0.00 | 0.05 | 0.05 | 99 | 1015.9 |
| 20260503015114 | 69 | 115 | 1.0 | 2.0 | 0.00 | 0.05 | 0.05 | 99 | 1015.1 |
| 20260503014609 | 70 | 243 | 3.0 | 5.0 | 0.00 | 0.05 | 0.05 | 99 | 1015.7 |
| 20260503014108 | 69 | 130 | 2.0 | 2.0 | 0.00 | 0.05 | 0.05 | 99 | 1015.7 |
| 20260503013605 | 69 | 101 | 1.0 | 5.0 | 0.00 | 0.05 | 0.05 | 99 | 1015.6 |
| 20260503013103 | 69 | 109 | 2.0 | 5.0 | 0.00 | 0.05 | 0.05 | 99 | 1015.6 |
| 20260503012600 | 69 | 239 | 4.0 | 6.0 | 0.00 | 0.05 | 0.05 | 99 | 1015.4 |
| 20260503012056 | 69 | 229 | 4.0 | 6.0 | 0.00 | 0.05 | 0.05 | 99 | 1015.3 |
| 20260503011552 | 69 | 218 | 3.0 | 5.0 | 0.00 | 0.05 | 0.05 | 99 | 1015.5 |
| 20260503011050 | 70 | 153 | 3.0 | 5.0 | 0.00 | 0.05 | 0.05 | 99 | 1015.7 |
| 20260503010546 | 70 | 121 | 2.0 | 3.0 | 0.00 | 0.05 | 0.05 | 99 | 1015.3 |
| 20260503010044 | 70 | 206 | 3.0 | 7.0 | 0.00 | 0.05 | 0.05 | 99 | 1015.5 |
| 20260503005541 | 70 | 135 | 1.0 | 5.0 | 0.00 | 0.05 | 0.05 | 99 | 1015.2 |
| 20260503005038 | 70 | 182 | 3.0 | 3.0 | 0.00 | 0.05 | 0.05 | 99 | 1015.3 |
| 20260503004534 | 70 | 100 | 2.0 | 3.0 | 0.00 | 0.05 | 0.05 | 99 | 1015.1 |
| 20260503004032 | 70 | 116 | 1.0 | 3.0 | 0.00 | 0.05 | 0.05 | 99 | 1015.4 |
| 20260503003529 | 70 | 129 | 1.0 | 3.0 | 0.00 | 0.05 | 0.05 | 99 | 1015.4 |
| 20260503003026 | 70 | 154 | 2.0 | 3.0 | 0.00 | 0.05 | 0.05 | 99 | 1015.5 |
| 20260503002523 | 70 | 154 | 2.0 | 3.0 | 0.00 | 0.05 | 0.05 | 99 | 1015.7 |
| 20260503002020 | 70 | 148 | 1.0 | 2.0 | 0.00 | 0.05 | 0.05 | 99 | 1015.8 |
| 20260503001516 | 70 | 259 | 1.0 | 2.0 | 0.00 | 0.05 | 0.05 | 99 | 1015.8 |
| 20260503001013 | 70 | 240 | 3.0 | 5.0 | 0.00 | 0.05 | 0.05 | 99 | 1015.9 |
| 20260503000511 | 70 | 110 | 0.0 | 3.0 | 0.00 | 0.05 | 0.05 | 99 | 1016.0 |
| 20260503000008 | 70 | 147 | 2.0 | 3.0 | 0.00 | 0.05 | 0.05 | 99 | 1015.8 |
| 20260502235504 | 70 | 8 | 2.0 | 5.0 | 0.00 | 0.05 | 0.05 | 99 | 1016.3 |
| 20260502235002 | 70 | 183 | 3.0 | 6.0 | 0.00 | 0.05 | 0.05 | 99 | 1016.2 |
| 20260502234458 | 70 | 267 | 2.0 | 6.0 | 0.00 | 0.05 | 0.05 | 99 | 1016.0 |
| 20260502233955 | 70 | 250 | 4.0 | 6.0 | 0.00 | 0.05 | 0.05 | 99 | 1016.1 |
| 20260502233450 | 71 | 287 | 3.0 | 5.0 | 0.00 | 0.05 | 0.05 | 99 | 1016.0 |
| 20260502232947 | 71 | 240 | 4.0 | 5.0 | 0.00 | 0.05 | 0.05 | 99 | 1015.5 |
| 20260502232444 | 71 | 101 | 2.0 | 2.0 | 0.00 | 0.05 | 0.05 | 98 | 1015.3 |
| 20260502231941 | 71 | 204 | 1.0 | 2.0 | 0.00 | 0.05 | 0.05 | 98 | 1015.6 |
| 20260502231438 | 71 | 97 | 0.0 | 2.0 | 0.00 | 0.05 | 0.05 | 97 | 1015.5 |
| 20260502230936 | 71 | 77 | 2.0 | 2.0 | 0.00 | 0.05 | 0.05 | 97 | 1015.4 |
| 20260502230434 | 71 | 132 | 3.0 | 5.0 | 0.05 | 0.05 | 0.05 | 96 | 1015.6 |
| 20260502225932 | 71 | 308 | 5.0 | 7.0 | 0.28 | 0.05 | 0.05 | 95 | 1015.7 |
| 20260502225427 | 72 | 305 | 8.0 | 11.0 | 0.24 | 0.04 | 0.04 | 93 | 1016.0 |
| 20260502224925 | 73 | 299 | 4.0 | 8.0 | 0.00 | 0.00 | 0.00 | 91 | 1015.8 |
| 20260502224420 | 73 | 206 | 5.0 | 9.0 | 0.00 | 0.00 | 0.00 | 89 | 1015.8 |
| 20260502223918 | 74 | 324 | 6.0 | 11.0 | 0.00 | 0.00 | 0.00 | 86 | 1015.7 |
| 20260502223416 | 76 | 307 | 7.0 | 21.0 | 0.00 | 0.00 | 0.00 | 80 | 1015.9 |
| 20260502222914 | 78 | 297 | 13.0 | 17.0 | 0.00 | 0.00 | 0.00 | 76 | 1016.0 |
| 20260502222410 | 80 | 315 | 10.0 | 16.0 | 0.00 | 0.00 | 0.00 | 75 | 1015.3 |
| 20260502221905 | 83 | 301 | 11.0 | 17.0 | 0.00 | 0.00 | 0.00 | 72 | 1015.2 |
| 20260502221402 | 84 | 257 | 5.0 | 9.0 | 0.00 | 0.00 | 0.00 | 68 | 1014.9 |
| 20260502220859 | 84 | 286 | 8.0 | 9.0 | 0.00 | 0.00 | 0.00 | 70 | 1014.8 |
| 20260502220355 | 84 | 295 | 5.0 | 9.0 | 0.00 | 0.00 | 0.00 | 70 | 1014.7 |
| 20260502215852 | 84 | 331 | 5.0 | 10.0 | 0.00 | 0.00 | 0.00 | 70 | 1014.6 |
| 20260502215350 | 85 | 163 | 2.0 | 7.0 | 0.00 | 0.00 | 0.00 | 69 | 1014.4 |
| 20260502214846 | 85 | 332 | 4.0 | 6.0 | 0.00 | 0.00 | 0.00 | 68 | 1014.4 |
| 20260502214343 | 85 | 269 | 5.0 | 7.0 | 0.00 | 0.00 | 0.00 | 68 | 1014.4 |
| 20260502213840 | 86 | 202 | 5.0 | 7.0 | 0.00 | 0.00 | 0.00 | 67 | 1014.1 |
| 20260502213337 | 86 | 223 | 6.0 | 7.0 | 0.00 | 0.00 | 0.00 | 66 | 1014.2 |
| 20260502212836 | 86 | 150 | 4.0 | 9.0 | 0.00 | 0.00 | 0.00 | 66 | 1014.0 |
| 20260502212334 | 86 | 244 | 5.0 | 7.0 | 0.00 | 0.00 | 0.00 | 65 | 1014.0 |
| 20260502211831 | 86 | 330 | 6.0 | 8.0 | 0.00 | 0.00 | 0.00 | 65 | 1014.1 |
| 20260502211326 | 87 | 290 | 9.0 | 11.0 | 0.00 | 0.00 | 0.00 | 64 | 1014.0 |
| 20260502210824 | 87 | 160 | 3.0 | 9.0 | 0.00 | 0.00 | 0.00 | 63 | 1014.0 |
| 20260502210321 | 87 | 247 | 8.0 | 9.0 | 0.00 | 0.00 | 0.00 | 62 | 1014.0 |
| 20260502205818 | 87 | 193 | 8.0 | 11.0 | 0.00 | 0.00 | 0.00 | 61 | 1013.9 |
| 20260502205314 | 88 | 292 | 9.0 | 11.0 | 0.00 | 0.00 | 0.00 | 60 | 1014.1 |
| 20260502204811 | 88 | 279 | 8.0 | 16.0 | 0.00 | 0.00 | 0.00 | 58 | 1014.1 |
| 20260502204309 | 88 | 267 | 3.0 | 10.0 | 0.00 | 0.00 | 0.00 | 58 | 1013.8 |
| 20260502203806 | 88 | 297 | 6.0 | 11.0 | 0.00 | 0.00 | 0.00 | 56 | 1013.8 |
| 20260502203304 | 89 | 258 | 6.0 | 11.0 | 0.00 | 0.00 | 0.00 | 57 | 1014.0 |
| 20260502202803 | 89 | 265 | 6.0 | 13.0 | 0.00 | 0.00 | 0.00 | 58 | 1014.1 |
| 20260502202304 | 89 | 293 | 7.0 | 15.0 | 0.00 | 0.00 | 0.00 | 58 | 1014.0 |
| 20260502201759 | 89 | 302 | 10.0 | 14.0 | 0.00 | 0.00 | 0.00 | 57 | 1013.8 |
| 20260502201255 | 89 | 242 | 10.0 | 13.0 | 0.00 | 0.00 | 0.00 | 55 | 1013.9 |
| 20260502200751 | 89 | 218 | 7.0 | 16.0 | 0.00 | 0.00 | 0.00 | 56 | 1014.0 |
| 20260502200247 | 89 | 295 | 5.0 | 11.0 | 0.00 | 0.00 | 0.00 | 55 | 1013.8 |
| 20260502195746 | 89 | 271 | 8.0 | 11.0 | 0.00 | 0.00 | 0.00 | 54 | 1013.9 |
| 20260502195242 | 90 | 263 | 9.0 | 13.0 | 0.00 | 0.00 | 0.00 | 53 | 1014.0 |
| 20260502194738 | 90 | 241 | 5.0 | 14.0 | 0.00 | 0.00 | 0.00 | 53 | 1014.0 |
| 20260502194236 | 90 | 205 | 8.0 | 13.0 | 0.00 | 0.00 | 0.00 | 53 | 1014.2 |
| 20260502193731 | 90 | 257 | 10.0 | 16.0 | 0.00 | 0.00 | 0.00 | 53 | 1014.2 |
| 20260502193229 | 90 | 216 | 11.0 | 14.0 | 0.00 | 0.00 | 0.00 | 55 | 1014.2 |
| 20260502192729 | 90 | 296 | 11.0 | 15.0 | 0.00 | 0.00 | 0.00 | 55 | 1014.3 |
| 20260502192227 | 90 | 268 | 6.0 | 10.0 | 0.00 | 0.00 | 0.00 | 56 | 1014.2 |
| 20260502191723 | 90 | 281 | 8.0 | 13.0 | 0.00 | 0.00 | 0.00 | 56 | 1014.5 |
| 20260502191221 | 90 | 288 | 7.0 | 11.0 | 0.00 | 0.00 | 0.00 | 55 | 1014.4 |
| 20260502190718 | 90 | 264 | 6.0 | 11.0 | 0.00 | 0.00 | 0.00 | 56 | 1014.3 |
| 20260502190216 | 90 | 284 | 10.0 | 16.0 | 0.00 | 0.00 | 0.00 | 55 | 1014.5 |
| 20260502185715 | 90 | 146 | 6.0 | 15.0 | 0.00 | 0.00 | 0.00 | 54 | 1014.4 |
| 20260502185212 | 90 | 297 | 14.0 | 16.0 | 0.00 | 0.00 | 0.00 | 53 | 1014.5 |
| 20260502184708 | 90 | 223 | 8.0 | 13.0 | 0.00 | 0.00 | 0.00 | 54 | 1014.5 |
| 20260502184204 | 90 | 254 | 7.0 | 15.0 | 0.00 | 0.00 | 0.00 | 54 | 1014.5 |
| 20260502183701 | 91 | 276 | 13.0 | 17.0 | 0.00 | 0.00 | 0.00 | 53 | 1014.6 |
| 20260502183157 | 91 | 207 | 7.0 | 14.0 | 0.00 | 0.00 | 0.00 | 52 | 1014.8 |
| 20260502182652 | 90 | 243 | 8.0 | 17.0 | 0.00 | 0.00 | 0.00 | 53 | 1014.9 |
| 20260502182148 | 90 | 298 | 13.0 | 18.0 | 0.00 | 0.00 | 0.00 | 53 | 1014.7 |
| 20260502181646 | 91 | 250 | 12.0 | 16.0 | 0.00 | 0.00 | 0.00 | 52 | 1014.8 |
| 20260502181145 | 91 | 308 | 7.0 | 16.0 | 0.00 | 0.00 | 0.00 | 53 | 1014.8 |
| 20260502180641 | 90 | 297 | 5.0 | 16.0 | 0.00 | 0.00 | 0.00 | 51 | 1014.6 |
| 20260502180138 | 91 | 236 | 9.0 | 13.0 | 0.00 | 0.00 | 0.00 | 51 | 1014.5 |
| 20260502164049 | 89 | 247 | 12.0 | 15.0 | 0.00 | 0.00 | 0.00 | 62 | 1015.2 |
| 20260502163545 | 89 | 204 | 7.0 | 14.0 | 0.00 | 0.00 | 0.00 | 64 | 1015.3 |
| 20260502163042 | 89 | 150 | 2.0 | 9.0 | 0.00 | 0.00 | 0.00 | 66 | 1015.1 |
| 20260502162539 | 88 | 165 | 4.0 | 16.0 | 0.00 | 0.00 | 0.00 | 67 | 1015.4 |
| 20260502162036 | 88 | 271 | 7.0 | 14.0 | 0.00 | 0.00 | 0.00 | 66 | 1015.1 |
| 20260502161533 | 89 | 330 | 7.0 | 15.0 | 0.00 | 0.00 | 0.00 | 66 | 1015.3 |
| 20260502161031 | 89 | 290 | 6.0 | 11.0 | 0.00 | 0.00 | 0.00 | 65 | 1015.2 |
| 20260502160528 | 89 | 262 | 7.0 | 11.0 | 0.00 | 0.00 | 0.00 | 64 | 1015.2 |
| 20260502151924 | 88 | 246 | 6.0 | 8.0 | 0.00 | 0.00 | 0.00 | 68 | 1015.1 |
| 20260502151420 | 87 | 40 | 3.0 | 9.0 | 0.00 | 0.00 | 0.00 | 69 | 1015.4 |
| 20260502150918 | 87 | 226 | 6.0 | 11.0 | 0.00 | 0.00 | 0.00 | 70 | 1015.0 |
| 20260502150415 | 86 | 235 | 5.0 | 13.0 | 0.00 | 0.00 | 0.00 | 70 | 1015.1 |
| 20260502130301 | 79 | 170 | 5.0 | 6.0 | 0.00 | 0.00 | 0.00 | 88 | 1014.8 |
| 20260502123746 | 76 | 176 | 3.0 | 6.0 | 0.00 | 0.00 | 0.00 | 90 | 1014.7 |
| 20260502123243 | 75 | 195 | 4.0 | 6.0 | 0.00 | 0.00 | 0.00 | 91 | 1014.8 |
| 20260502122739 | 75 | 133 | 2.0 | 8.0 | 0.00 | 0.00 | 0.00 | 92 | 1014.6 |
| 20260502122236 | 74 | 114 | 1.0 | 7.0 | 0.00 | 0.00 | 0.00 | 93 | 1014.8 |
| 20260502121734 | 73 | 104 | 2.0 | 3.0 | 0.00 | 0.00 | 0.00 | 95 | 1014.9 |
| 20260502121232 | 72 | 285 | 4.0 | 6.0 | 0.00 | 0.00 | 0.00 | 96 | 1014.9 |
| 20260502120728 | 71 | 129 | 1.0 | 6.0 | 0.00 | 0.00 | 0.00 | 98 | 1014.6 |
| 20260502120225 | 71 | 135 | 2.0 | 3.0 | 0.00 | 0.00 | 0.00 | 99 | 1014.5 |
| 20260502115723 | 70 | 138 | 2.0 | 5.0 | 0.00 | 0.00 | 0.00 | 99 | 1014.7 |
| 20260502115219 | 70 | 170 | 2.0 | 5.0 | 0.00 | 0.00 | 0.00 | 99 | 1014.8 |
| 20260502114715 | 69 | 122 | 1.0 | 2.0 | 0.00 | 0.00 | 0.00 | 99 | 1014.7 |
| 20260502114213 | 68 | 132 | 1.0 | 1.0 | 0.00 | 0.00 | 0.00 | 99 | 1014.8 |
| 20260502113709 | 68 | 180 | 2.0 | 2.0 | 0.00 | 0.00 | 0.00 | 99 | 1014.7 |
| 20260502113207 | 68 | 148 | 1.0 | 3.0 | 0.00 | 0.00 | 0.00 | 99 | 1014.8 |
| 20260502112705 | 67 | 127 | 0.0 | 2.0 | 0.00 | 0.00 | 0.00 | 99 | 1014.6 |
| 20260502112203 | 67 | 108 | 0.0 | 2.0 | 0.00 | 0.00 | 0.00 | 99 | 1014.9 |
| 20260502111700 | 66 | 125 | 1.0 | 1.0 | 0.00 | 0.00 | 0.00 | 99 | 1014.9 |
| 20260502111157 | 66 | 144 | 1.0 | 2.0 | 0.00 | 0.00 | 0.00 | 99 | 1014.9 |
| 20260502110655 | 66 | 189 | 1.0 | 2.0 | 0.00 | 0.00 | 0.00 | 99 | 1014.9 |
| 20260502110152 | 66 | 136 | 1.0 | 1.0 | 0.00 | 0.00 | 0.00 | 99 | 1014.6 |
| 20260502105649 | 66 | 112 | 0.0 | 1.0 | 0.00 | 0.00 | 0.00 | 99 | 1014.7 |
| 20260502105146 | 65 | 140 | 0.0 | 0.0 | 0.00 | 0.00 | 0.00 | 99 | 1014.6 |
| 20260502104643 | 66 | 141 | 1.0 | 2.0 | 0.00 | 0.00 | 0.00 | 99 | 1014.8 |
| 20260502104141 | 66 | 112 | 0.0 | 0.0 | 0.00 | 0.00 | 0.00 | 99 | 1014.7 |
| 20260502103638 | 66 | 117 | 0.0 | 0.0 | 0.00 | 0.00 | 0.00 | 99 | 1014.8 |
| 20260502103136 | 66 | 116 | 0.0 | 0.0 | 0.00 | 0.00 | 0.00 | 99 | 1014.7 |
| 20260502102633 | 66 | 121 | 0.0 | 0.0 | 0.00 | 0.00 | 0.00 | 99 | 1014.8 |
| 20260502102129 | 66 | 116 | 1.0 | 2.0 | 0.00 | 0.00 | 0.00 | 99 | 1014.8 |
| 20260502101627 | 66 | 121 | 0.0 | 0.0 | 0.00 | 0.00 | 0.00 | 99 | 1015.0 |
| 20260502101125 | 66 | 107 | 0.0 | 0.0 | 0.00 | 0.00 | 0.00 | 99 | 1015.0 |
| 20260502100624 | 66 | 138 | 1.0 | 1.0 | 0.00 | 0.00 | 0.00 | 99 | 1015.0 |
| 20260502100122 | 66 | 112 | 0.0 | 2.0 | 0.00 | 0.00 | 0.00 | 99 | 1015.2 |
| 20260502091055 | 67 | 128 | 2.0 | 2.0 | 0.00 | 0.00 | 0.00 | 99 | 1015.1 |
| 20260502090552 | 67 | 162 | 1.0 | 2.0 | 0.00 | 0.00 | 0.00 | 99 | 1015.2 |
| 20260502071447 | 66 | 109 | 0.0 | 0.0 | 0.00 | 0.00 | 0.00 | 99 | 1014.9 |
| 20260502070945 | 66 | 112 | 0.0 | 0.0 | 0.00 | 0.00 | 0.00 | 98 | 1015.0 |
| 20260502070442 | 66 | 106 | 0.0 | 0.0 | 0.00 | 0.00 | 0.00 | 98 | 1015.1 |
| 20260502065941 | 66 | 106 | 0.0 | 0.0 | 0.00 | 0.00 | 0.00 | 98 | 1015.1 |
| 20260502065439 | 66 | 106 | 0.0 | 0.0 | 0.00 | 0.00 | 0.00 | 98 | 1015.4 |
| 20260502064937 | 66 | 107 | 0.0 | 0.0 | 0.00 | 0.00 | 0.00 | 98 | 1015.3 |
| 20260502064434 | 66 | 107 | 0.0 | 0.0 | 0.00 | 0.00 | 0.00 | 98 | 1015.3 |
| 20260502063931 | 66 | 107 | 0.0 | 0.0 | 0.00 | 0.00 | 0.00 | 97 | 1015.3 |